Tracking 25710 objects as of 6-Jul-2022
HD Live streaming from Space Station
objects crossing your sky now

ATLAS 5 CENTAUR DEB

Track ATLAS 5 CENTAUR DEB now!


NORAD ID: 46639
Int'l Code: 2014-055CP
Perigee: 8,239.1 km
Apogee: 34,433.4 km
Inclination: 21.2 °
Period: 765.0 minutes
Semi major axis: 27707 km
RCS: Unknown
Launch date: September 17, 2014
Source: United States (US)
Launch site: AIR FORCE EASTERN TEST RANGE (AFETR)

Note: This is SATELLITE DEBRIS
aabbcc
Your satellite tracking list
Your tracking list is empty




NASA's NSSDC Master Catalog

Two Line Element Set (TLE):
1 46639U 14055CP  22180.27460060 -.00000072  00000-0  00000-0 0  9991
2 46639  21.1652 280.4066 4726978 285.5443  28.6991  1.88240223 11846
Source of the keplerian elements: AFSPC